{"data":{"norad_id":64944,"intl_designator":"2025-158N","name":"STARLINK-34373","alt_names":[],"object_type":"PAYLOAD","status":"ACTIVE","operator":null,"country":"US","launch_date":"2025-07-27","launch_site_code":"AFWTR","launch_vehicle":null,"mission":null,"orbit_class":"UNKNOWN","rcs_meters":null,"size_class":null,"mass_kg":null,"dimensions":null,"purposes":["comms"],"wikipedia_slug":null,"has_3d_model":false,"image_url":null,"decayed_at":null,"tle_current":{"epoch":"2026-09-20T18:57:20.327904Z","epoch_age_seconds":99252,"freshness":"FRESH","line1":"1 64944U 25158N   26263.78981861  .00016479  00000+0  51173-3 0  9991","line2":"2 64944  97.2847 122.1362 0001430  87.7970 272.3437 15.33440486 64757","mean_motion":15.33440486,"eccentricity":0.000143,"inclination_deg":97.2847,"raan_deg":122.1362,"arg_perigee_deg":87.797,"mean_anomaly_deg":272.3437,"bstar":0.00051173,"rev_number":6475,"period_min":93.906481089218,"perigee_km":464.57795681369,"apogee_km":466.53525318472,"semimajor_km":6843.6936049992,"source":"CELESTRAK","updated_at":"2026-09-21T09:00:35.488465Z"}}}